Weather History for Coatesville, PA

Change the Weather History Date:

Tuesday, July 2, 2013

  Actual Average (KLNS) Record (KLNS)
Temperature  
Mean Temperature 78 °F -  
Max Temperature 82 °F 82 °F 95 °F (2002)
Min Temperature 73 °F 60 °F 51 °F (1982)
Cooling Degree Days 12    
Growing Degree Days 28 (Base 50)    
Moisture  
Dew Point 72 °F    
Average Humidity 90    
Maximum Humidity 100    
Minimum Humidity 70    
Precipitation  
Precipitation 0.54 in - - ()
Sea Level Pressure  
Sea Level Pressure 30.14 in    
Wind  
Wind Speed 5 mph (South)    
Max Wind Speed 8 mph    
Max Gust Speed 17 mph    
Visibility 9 miles    
Events Rain    
Averages and records for this station are not official NWS values.
T = Trace of Precipitation, MM = Missing Value Source: NWS Daily Summary

Daily Weather History Graph

Daily Weather History Graph

Search for Another Location

Airport:

Trip Planner

Search our weather history database for the weather conditions in past years. The results will help you decide how hot, cold, wet, or windy it might be!

Date:

Astronomy

Jul. 02, 2013 Rise Set
Actual Time 5:39 AM EDT 8:35 PM EDT
Civil Twilight 5:06 AM EDT 9:08 PM EDT
Nautical Twilight 4:25 AM EDT 9:49 PM EDT
Astronomical Twilight 3:37 AM EDT 10:37 PM EDT
Moon 1:40 AM EDT (7/2) 3:47 PM EDT (7/2)
Length of Visible Light 16h 02m
Length of Day
14h 56m
Waning Crescent, 26% of the Moon is Illuminated
Jul 2
Waning Crescent
Jul 8
New
Jul 15
First Quarter
Jul 22
Full
Jul 29
Last Quarter

Hourly Weather History & Observations

Time (EDT) Temp. Heat Index Dew Point Humidity Pressure Visibility Wind Dir Wind Speed Gust Speed Precip Events Conditions
12:15 AM 73.4 °F - 73.4 °F 100% 30.05 in 10.0 mi SSE 4.6 mph - N/A   Overcast
12:35 AM 73.4 °F - 73.4 °F 100% 30.05 in 10.0 mi SSE 6.9 mph - N/A   Overcast
12:55 AM 73.4 °F - 73.4 °F 100% 30.05 in 10.0 mi SSE 6.9 mph - N/A   Overcast
1:15 AM 73.4 °F - 73.4 °F 100% 30.05 in 10.0 mi SE 6.9 mph - N/A   Overcast
1:35 AM 73.4 °F - 73.4 °F 100% 30.06 in 2.5 mi SSE 5.8 mph - 0.03 in Rain Heavy Rain
1:55 AM 73.4 °F - 73.4 °F 100% 30.06 in 5.0 mi Calm Calm - 0.08 in   Overcast
2:15 AM 73.4 °F - 73.4 °F 100% 30.06 in 8.0 mi South 3.5 mph - N/A   Overcast
2:35 AM 73.4 °F - 73.4 °F 100% 30.06 in 9.0 mi South 3.5 mph - N/A   Overcast
2:55 AM 73.4 °F - 73.4 °F 100% 30.06 in 9.0 mi SSE 4.6 mph - N/A   Overcast
3:15 AM 73.4 °F - 73.4 °F 100% 30.06 in 1.5 mi Calm Calm - 0.46 in Rain Light Rain
3:35 AM 73.4 °F - 73.4 °F 100% 30.06 in 10.0 mi South 4.6 mph - 0.46 in   Overcast
3:55 AM 73.4 °F - 73.4 °F 100% 30.07 in 10.0 mi South 4.6 mph - 0.46 in   Overcast
4:15 AM 73.4 °F - 71.6 °F 94% 30.07 in 9.0 mi Calm Calm - N/A   Overcast
4:35 AM 73.4 °F - 71.6 °F 94% 30.07 in 9.0 mi SSE 5.8 mph - N/A   Overcast
4:55 AM 73.4 °F - 71.6 °F 94% 30.08 in 9.0 mi SSE 3.5 mph - N/A   Overcast
5:15 AM 73.4 °F - 71.6 °F 94% 30.09 in 9.0 mi South 3.5 mph - N/A   Overcast
5:35 AM 73.4 °F - 71.6 °F 94% 30.08 in 10.0 mi Calm Calm - N/A   Overcast
5:55 AM 73.4 °F - 71.6 °F 94% 30.09 in 7.0 mi SSE 3.5 mph - N/A   Overcast
6:15 AM 73.4 °F - 71.6 °F 94% 30.10 in 8.0 mi Calm Calm - N/A   Overcast
6:35 AM 73.4 °F - 71.6 °F 94% 30.10 in 8.0 mi SSE 4.6 mph - N/A   Overcast
6:55 AM 73.4 °F - 71.6 °F 94% 30.10 in 8.0 mi SSE 3.5 mph - N/A   Overcast
7:15 AM 73.4 °F - 71.6 °F 94% 30.11 in 8.0 mi SSE 3.5 mph - N/A   Overcast
7:35 AM 73.4 °F - 71.6 °F 94% 30.12 in 9.0 mi South 3.5 mph - N/A   Overcast
7:55 AM 73.4 °F - 73.4 °F 100% 30.12 in 10.0 mi SSE 3.5 mph - N/A   Overcast
8:15 AM 75.2 °F - 73.4 °F 94% 30.12 in 10.0 mi South 3.5 mph - N/A   Overcast
8:35 AM 75.2 °F - 73.4 °F 94% 30.13 in 10.0 mi South 4.6 mph - N/A   Overcast
8:55 AM 73.4 °F - 71.6 °F 94% 30.13 in 10.0 mi South 3.5 mph - N/A   Overcast
9:15 AM 75.2 °F - 71.6 °F 89% 30.14 in 10.0 mi South 3.5 mph - N/A Rain Light Rain
9:35 AM 73.4 °F - 73.4 °F 100% 30.14 in 10.0 mi SSE 3.5 mph - N/A   Overcast
9:55 AM 75.2 °F - 73.4 °F 94% 30.14 in 10.0 mi SSE 3.5 mph - N/A   Overcast
10:15 AM 75.2 °F - 73.4 °F 94% 30.14 in 10.0 mi South 5.8 mph - N/A   Overcast
10:35 AM 75.2 °F - 73.4 °F 94% 30.14 in 10.0 mi SSE 4.6 mph - N/A   Overcast
10:55 AM 75.2 °F - 73.4 °F 94% 30.15 in 10.0 mi SSE 4.6 mph - N/A Rain Light Rain
11:15 AM 75.2 °F - 73.4 °F 94% 30.16 in 10.0 mi SSE 4.6 mph - N/A   Mostly Cloudy
11:35 AM 75.2 °F - 73.4 °F 94% 30.16 in 10.0 mi South 3.5 mph - N/A   Mostly Cloudy
11:55 AM 77.0 °F - 73.4 °F 89% 30.16 in 10.0 mi SSE 4.6 mph - N/A   Overcast
12:15 PM 78.8 °F - 73.4 °F 83% 30.16 in 10.0 mi South 6.9 mph - N/A   Overcast
12:35 PM 80.6 °F 85.4 °F 73.4 °F 79% 30.16 in 10.0 mi South 5.8 mph - N/A   Mostly Cloudy
12:55 PM 80.6 °F 85.4 °F 73.4 °F 79% 30.16 in 10.0 mi South 8.1 mph - N/A   Scattered Clouds
1:15 PM 78.8 °F - 73.4 °F 83% 30.15 in 10.0 mi South 4.6 mph - N/A   Mostly Cloudy
1:35 PM 78.8 °F - 71.6 °F 78% 30.14 in 10.0 mi South 5.8 mph - N/A   Mostly Cloudy
1:55 PM 80.6 °F 84.6 °F 71.6 °F 74% 30.15 in 10.0 mi South 6.9 mph - N/A   Mostly Cloudy
2:15 PM 80.6 °F 84.6 °F 71.6 °F 74% 30.15 in 10.0 mi South 5.8 mph - N/A   Scattered Clouds
2:35 PM 82.4 °F 87.2 °F 71.6 °F 70% 30.14 in 10.0 mi South 5.8 mph - N/A   Partly Cloudy
2:55 PM 80.6 °F 84.6 °F 71.6 °F 74% 30.14 in 10.0 mi SSW 8.1 mph - N/A   Partly Cloudy
3:15 PM 82.4 °F 88.2 °F 73.4 °F 74% 30.14 in 10.0 mi South 5.8 mph - N/A   Clear
3:35 PM 80.6 °F 84.6 °F 71.6 °F 74% 30.14 in 10.0 mi South 6.9 mph - N/A   Partly Cloudy
3:55 PM 80.6 °F 84.6 °F 71.6 °F 74% 30.14 in 10.0 mi South 5.8 mph - N/A   Scattered Clouds
4:15 PM 78.8 °F - 71.6 °F 78% 30.14 in 10.0 mi SSW 4.6 mph - N/A   Mostly Cloudy
4:35 PM 78.8 °F - 71.6 °F 78% 30.15 in 10.0 mi South 8.1 mph - N/A   Scattered Clouds
4:55 PM 78.8 °F - 71.6 °F 78% 30.15 in 10.0 mi SW 4.6 mph - N/A   Partly Cloudy
5:15 PM 78.8 °F - 71.6 °F 78% 30.16 in 8.0 mi South 5.8 mph - N/A Rain Light Rain
5:35 PM 77.0 °F - 73.4 °F 89% 30.16 in 10.0 mi SSW 5.8 mph - N/A   Partly Cloudy
5:55 PM 75.2 °F - 71.6 °F 89% 30.17 in 10.0 mi SSW 5.8 mph 17.3 mph N/A   Light Drizzle
6:15 PM 75.2 °F - 71.6 °F 89% 30.18 in 10.0 mi SSW 6.9 mph - N/A   Scattered Clouds
6:35 PM 75.2 °F - 69.8 °F 83% 30.18 in 10.0 mi SSW 6.9 mph - N/A   Partly Cloudy
6:55 PM 75.2 °F - 69.8 °F 83% 30.18 in 10.0 mi SSW 5.8 mph - N/A   Clear
7:15 PM 75.2 °F - 69.8 °F 83% 30.19 in 10.0 mi SSW 6.9 mph - N/A   Clear
7:35 PM 75.2 °F - 71.6 °F 89% 30.19 in 10.0 mi SSW 6.9 mph - N/A   Clear
7:55 PM 75.2 °F - 71.6 °F 89% 30.19 in 10.0 mi SW 3.5 mph - N/A   Clear
8:15 PM 75.2 °F - 71.6 °F 89% 30.19 in 10.0 mi South 5.8 mph - N/A   Clear
8:35 PM 73.4 °F - 71.6 °F 94% 30.19 in 10.0 mi South 5.8 mph - N/A   Clear
8:55 PM 73.4 °F - 71.6 °F 94% 30.19 in 10.0 mi Calm Calm - N/A   Partly Cloudy
9:15 PM 73.4 °F - 71.6 °F 94% 30.19 in 10.0 mi South 4.6 mph - N/A   Mostly Cloudy
9:35 PM 73.4 °F - 71.6 °F 94% 30.20 in 10.0 mi Calm Calm - N/A   Overcast
9:55 PM 73.4 °F - 71.6 °F 94% 30.21 in 10.0 mi South 5.8 mph - N/A   Overcast
10:15 PM 73.4 °F - 71.6 °F 94% 30.21 in 10.0 mi South 3.5 mph - N/A   Overcast
10:35 PM 73.4 °F - 71.6 °F 94% 30.21 in 10.0 mi South 4.6 mph - N/A   Overcast
10:55 PM 73.4 °F - 71.6 °F 94% 30.21 in 10.0 mi South 4.6 mph - N/A   Mostly Cloudy
11:15 PM 73.4 °F - 71.6 °F 94% 30.21 in 10.0 mi South 4.6 mph - N/A   Scattered Clouds
11:35 PM 73.4 °F - 71.6 °F 94% 30.22 in 10.0 mi SSW 4.6 mph - N/A   Mostly Cloudy
11:55 PM 73.4 °F - 71.6 °F 94% 30.22 in 10.0 mi South 3.5 mph - N/A   Overcast